Overview Statistics Trail Chart Weather Telemetry Raw packets
 

This is the latest recevied weather packets stored in our database for station/object W5ITZ. If no packets are shown the sender has not sent any weather packets the latest 10 day(s).

<< 57 58 59 60 61 62 63 >>
Time Temp. Humidity Pressure Rain* Wind** Luminosity Snow
1787837770 27.78° C 83% 1015.6 hPa 0 mm - 189 W/m² -
1787837465 27.78° C 85% 1015.5 hPa 0 mm - 172 W/m² -
1787837167 27.78° C 85% 1015.2 hPa 0 mm - 157 W/m² -
1787836858 27.78° C 85% 1015.1 hPa 0 mm - 142 W/m² -
1787836554 27.78° C 87% 1015.4 hPa 0 mm - 127 W/m² -
1787836254 27.22° C 87% 1015.1 hPa 0 mm - 115 W/m² -
1787835949 27.22° C 88% 1015.4 hPa 0 mm - 102 W/m² -
1787835649 27.22° C 88% 1015.4 hPa 0 mm - 90 W/m² -
1787835344 27.22° C 89% 1015.3 hPa 0 mm - 78 W/m² -
1787835039 26.67° C 90% 1015.2 hPa 0 mm - 67 W/m² -
1787834738 26.67° C 90% 1015.2 hPa 0 mm - 58 W/m² -
1787834433 26.67° C 90% 1015 hPa 0 mm - 49 W/m² -
1787834129 26.67° C 90% 1015.1 hPa 0 mm - 40 W/m² -
1787833824 26.11° C 91% 1015 hPa 0 mm - 33 W/m² -
1787833520 26.11° C 91% 1014.7 hPa 0 mm - 26 W/m² -
1787833215 26.11° C 90% 1014.6 hPa 0 mm - 20 W/m² -
1787832910 26.67° C 90% 1014.7 hPa 0 mm - 14 W/m² -
1787832607 26.67° C 90% 1014.7 hPa 0 mm - 9 W/m² -
1787832305 26.67° C 90% 1014.7 hPa 0 mm - 6 W/m² -
1787832004 26.67° C 90% 1014.5 hPa 0 mm - 3 W/m² -
1787831698 26.67° C 90% 1014.8 hPa 0 mm - 1 W/m² -
1787831397 26.67° C 90% 1014.5 hPa 0 mm - 0 W/m² -
1787831095 26.67° C 90% 1014.7 hPa 0 mm - 0 W/m² -
1787830793 26.67° C 90% 1014.4 hPa 0 mm - 0 W/m² -
1787830493 26.67° C 89% 1014.2 hPa 0 mm - 0 W/m² -

* Rain latest hour (hover to see other rain measurements)
** Current wind speed in m/s (hover to see current wind gust speed)